This demonstration page uses our WeatherBlox Daily Observations layout. Learn more.

Left ArrowRight Arrow

Hourly Observations for August 29, 2018

Temp ( °F °C ) Dew Point ( °F °C ) Humidity (%) Winds ( mph kmh ) Pressure ( in mb ) Visibility ( mi km ) Precip ( " mm )
12:59 am 00:59 Partly Cloudy 80 26.7 73 22.8 79 79 SSW 9 15 30.12 1020 10 16 0.00 0.00
1:59 am 01:59 Partly Cloudy 80 26.7 73 22.8 79 79 SW 8 13 30.11 1020 10 16 0.00 0.00
2:59 am 02:59 Partly Cloudy 79 26.1 73 22.8 82 82 SW 10 17 30.11 1020 10 16 0.00 0.00
3:59 am 03:59 Partly Cloudy 78 25.6 73 22.8 85 85 SW 9 15 30.12 1020 10 16 0.00 0.00
4:59 am 04:59 Partly Cloudy 78 25.6 73 22.8 85 85 SW 12 19 30.13 1020 10 16 0.00 0.00
5:59 am 05:59 Partly Cloudy 77 25 73 22.8 88 88 SW 8 13 30.14 1021 10 16 0.00 0.00
6:59 am 06:59 Mostly Sunny 76 24.4 72 22.2 88 88 SW 8 13 30.14 1021 10 16 0.00 0.00
7:59 am 07:59 Mostly Sunny 78 25.6 72 22.2 82 82 SW 6 9 30.14 1021 10 16 0.00 0.00
8:59 am 08:59 Sunny 80 26.7 72 22.2 76 76 SW 8 13 30.14 1021 10 16 0.00 0.00
9:59 am 09:59 Sunny 83 28.3 72 22.2 70 70 W 9 15 30.14 1021 10 16 0.00 0.00
10:59 am 10:59 Mostly Sunny 86 30 73 22.8 65 65 W 7 11 30.13 1020 10 16 0.00 0.00
11:59 am 11:59 Mostly Sunny 89 31.7 73 22.8 59 59 WSW 6 9 30.11 1020 10 16 0.00 0.00
12:59 pm 12:59 Partly Cloudy 90 32.2 73 22.8 58 58 WSW 8 13 30.11 1020 10 16 0.00 0.00
1:59 pm 13:59 Mostly Sunny 92 33.3 73 22.8 54 54 SSW 9 15 30.10 1019 10 16 0.00 0.00
2:59 pm 14:59 Mostly Sunny 91 32.8 72 22.2 54 54 SW 8 13 30.08 1019 10 16 0.00 0.00
3:59 pm 15:59 Mostly Sunny 92 33.3 72 22.2 52 52 SSW 9 15 30.06 1018 10 16 0.00 0.00
4:59 pm 16:59 Mostly Sunny 90 32.2 71 21.7 54 54 SSW 9 15 30.05 1018 10 16 0.00 0.00
5:59 pm 17:59 Mostly Sunny 90 32.2 71 21.7 54 54 SW 7 11 30.04 1017 10 16 0.00 0.00
6:59 pm 18:59 Partly Cloudy 88 31.1 71 21.7 57 57 SW 9 15 30.04 1017 10 16 0.00 0.00
7:59 pm 19:59 Partly Cloudy 85 29.4 70 21.1 61 61 SSW 6 9 30.04 1017 10 16 0.00 0.00
8:59 pm 20:59 Partly Cloudy 84 28.9 70 21.1 63 63 SSW 7 11 30.05 1018 10 16 0.00 0.00
9:59 pm 21:59 Partly Cloudy 84 28.9 71 21.7 65 65 SSW 8 13 30.06 1018 10 16 0.00 0.00
10:59 pm 22:59 Partly Cloudy 83 28.3 71 21.7 67 67 SW 7 11 30.07 1018 10 16 0.00 0.00
11:59 pm 23:59 Partly Cloudy 82 27.8 71 21.7 69 69 SSW 8 13 30.09 1019 10 16 0.00 0.00

Powered by AerisWeather